Weather in Ipoh

Malaysia     4°37′41″N   101°05′58″E
temp.,
°C
wind,
m/s
gust,
m/s
humid.,
%
clouds,
%
prec.,
mm/h
press.,
hPa
HPBL,
m
13 may, thu
thu1323:00+23ne1198100 0.6 100925
02:00+23n1198100 1.1 100723
05:00+23ne1199100 0.0 100623
08:00+23nne119897 0.0 100743
11:00+30sw0069100 0.0 1008718
14:00+30sw1180100 2.4 1006964
17:00+28wnw1193100 7.9 1004101
20:00+25se1195100 15.8 100611
14 may, fri
fri1423:00+24ne119899 1.5 100814
02:00+23ene009998 5.1 100719
05:00+23sse0110078 2.8 100642
08:00+23ene119989 7.4 100874
11:00+24wsw0199100 0.4 100976
14:00+31sw2263100 0.4 1006961
17:00+30sse0174100 1.3 1004494
20:00+25e0095100 2.9 100611
15 may, sat
sat1523:00+24s119894 1.8 100817
02:00+22nnw1110051 6.9 100729
05:00+22nne1110059 0.0 100643
08:00+23nne119821 0.0 100766
11:00+30nnw01665 0.0 1008738
14:00+33sw115577 0.8 10051787
17:00+27wsw018864 2.6 1005283
20:00+25w009535 4.3 100611
16 may, sun
sun1623:00+23ne019844 1.5 100813
02:00+23nne009928 2.8 100716
05:00+23n119959 0.0 100615
08:00+23nne1198100 0.0 100871
11:00+29w007593 0.8 1009663
14:00+32ssw1161100 1.9 10061330
17:00+29w117783 2.6 1005663
20:00+25wsw0195100 4.2 100711
17 may, mon
mon1723:00+24ne019885 0.6 100912
02:00+23nne119988 2.6 100824
05:00+23nne009998 0.0 100717
08:00+23nne1198100 0.0 100966
11:00+30sse1169100 0.0 1009832
14:00+32s2156100 0.3 10061694
17:00+28w1288100 1.8 1006102
20:00+24wsw119599 4.4 100811